Location: Czu?�w
(50.1404°N, 18.9919°E)
Time: 10:39:09
(UTC+00:00)

Cosmos 2227 Rocket - Pass Details

Date: 27 October 2020
Orbit: 839 x 845 km, 71.0° (Epoch: 25 November)

Event Time Altitude Azimuth Distance (km) Brightness Sun altitude
Rises 17:20:58 0° 328° (NNW) 3,408 5.8 -18.5°
Reaches altitude 10° 17:23:27 10° 325° (NW) 2,471 5.1 -18.9°
Maximum altitude 17:29:00 59° 247° (WSW) 971 2.7 -19.8°
Drops below altitude 10° 17:34:32 10° 170° (S) 2,458 4.5 -20.7°
Sets 17:37:00 0° 166° (SSE) 3,390 5.2 -21.1°
